We seek to understand and document all radio transmissions, legal and otherwise, as part of the radio listening hobby. We do not encourage any radio operations contrary to regulations. Always consult with the appropriate authorities if you have questions concerning what is permissable in your locale.

Author Topic: Winter 2016 NDB Logs  (Read 4494 times)

Offline jFarley

  • Global Moderator
  • DX Legend
  • *****
  • Posts: 5798
  • near Chicago
    • View Profile
    • Email
Winter 2016 NDB Logs
« on: December 11, 2016, 1830 UTC »
Recent logs from Downers Grove, Illinois

With 2 significant snows on the ground and frigid temps on the way, it's time to leave Fall behind.

A few from older recordings before they go in the Bit Bucket.  Found a little opening to the
Northeast in last nite's recording and was able to find a couple.  The NH log is USA state #44 here.

2016-12-09  0813  254.0  ZYC   Calgary, AB, CAN  2237 Km
2016-12-06  0951  330.0  2A     South Indian Lake, MB, CAN  1841 Km
2016-12-06  0856  367.0  R5     Pukatawagan, MB, CAN  1823 Km   
2016-12-11  0421  382.0  BT     Burlington, VT, USA  1234 Km
2016-12-11  0414  386.0  GMA   Whitefield, NH, USA  1349 Km    New
2016-12-06  0317  387.0  6E     Grand Manan, NB, CAN  1742 Km
2016-12-11  0441  402.0  LW     Lawrence, MA, USA  1382 Km     
2016-12-11  0344  407.0  CO     Colorado Springs, CO, USA  1462 Km   
2016-12-06  0910  410.0  6Z     La Loche, SK, CAN  2238 Km     
Joe Farley, Near Chicago
SDR-IQ / R8 / R7
Remote Resonant Loops for HF and LF / ALA 1530
Active 60" Whip / PA0RDT
QSLS appreciated to:    jfarley44@att.net

Offline jFarley

  • Global Moderator
  • DX Legend
  • *****
  • Posts: 5798
  • near Chicago
    • View Profile
    • Email
Re: Winter 2016 NDB Logs
« Reply #1 on: December 16, 2016, 1716 UTC »
Recent logs from Downers Grove, Illinois

Bracing for the Polar Express...

2016-12-16  0721  201.0  IP     Mobile, AZ, USA  2355 Km    New
2016-12-12  0951  215.0  ZAB   Edmonton (Intl Apt), AB, CAN  2279 Km
2016-12-14  0631  237.0  7C    Fogo, NL, CAN  2738 Km    New
2016-12-16  0321  257.0  ME    Maxton, NC, USA  1084 Km 
2016-12-12  0403  261.0  OA    Jacksonville, NC, USA  1191 Km   
2016-12-16  0633  263.0  LQL   Willoughby, OH, USA  548 Km
2016-12-14  0426  276.0  IS     Kinston, NC, USA  1156 Km    New
2016-12-13  0815  285.0  UHA   Quaqtaq, QC, CAN  2472 Km
2016-12-14  1237  305.0  RO    Roswell, NM, USA  1729 Km
2016-12-15  0004  335.0  CK    Clarksville, TN, USA  593 Km
2016-12-13  0341  335.0  IHS   Fort Carson, CO, USA  1469 Km
2016-12-13  0402  344.0  ML    Mc Alester, OK, USA  1037 Km   
2016-12-15  0145  356.0  ODX   Ord, NE, USA  913 Km
2016-12-13  0859  375.0  YZG   Salluit, QC, CAN  2408 Km
2016-12-16  0432  386.0  HAU   Helena, MT, USA  1965 Km     
Joe Farley, Near Chicago
SDR-IQ / R8 / R7
Remote Resonant Loops for HF and LF / ALA 1530
Active 60" Whip / PA0RDT
QSLS appreciated to:    jfarley44@att.net

Offline jFarley

  • Global Moderator
  • DX Legend
  • *****
  • Posts: 5798
  • near Chicago
    • View Profile
    • Email
Re: Winter 2016 NDB Logs
« Reply #2 on: December 21, 2016, 1719 UTC »
Logs from the last few days.

2016-12-20  0632  200.0  YJ     Victoria, BC, CAN  2850 Km     
2016-12-20  0706  203.0  ZKI   Kitimat, BC, CAN  3273 Km
2016-12-20  2220  254.0  HLB   Batesville, IN, USA  357 Km  with TWEB   
2016-12-20  0134  263.0  QY     Sydney, NS, CAN  2283 Km
2016-12-20  0601  266.0  VR     Vancouver, BC, CAN  2829 Km
2016-12-21  0603  335.0  SW     Newburgh, NY, USA  1144 Km   
2016-12-19  0321  362.0  JWE   Oxford, CT, USA  1235 Km    New
2016-12-21  0535  363.0  1F      Bathurst, NB, CAN  1868 Km    New
2016-12-21  0701  373.0  MF     Medford, OR, USA  2863 Km     
2016-12-21  0131  385.0  ZNS   Halifax, NS, CAN  2006 Km 
2016-12-17  0613  389.0  PVC   Provincetown, MA, USA  1469 Km
2016-12-17  0601  397.0  OW    Norwood, MA, USA  1393 Km
2016-12-21  0645  400.0  NHK   Patuxent River, MD, USA  1064 Km 
2016-12-17  0136  404.0  BMW  Winder, GA, USA  958 Km
2016-12-19  0617  414.0  GL     Goodland, KS, USA  1187 Km     
Joe Farley, Near Chicago
SDR-IQ / R8 / R7
Remote Resonant Loops for HF and LF / ALA 1530
Active 60" Whip / PA0RDT
QSLS appreciated to:    jfarley44@att.net

Offline jFarley

  • Global Moderator
  • DX Legend
  • *****
  • Posts: 5798
  • near Chicago
    • View Profile
    • Email
Re: Winter 2016 NDB Logs
« Reply #3 on: December 24, 2016, 1348 UTC »
Logs from Downers Grove, Illinois


2016-12-22  0302  221.0  BO   Bristol (Johnston-Kingsport), TN, USA  769 Km
2016-12-22  0417  231.0  BU   Buffalo, NY, USA  779 Km
2016-12-22  0621  248.0  IL    Wilmington, DE, USA  1071 Km     
2016-12-22  0730  263.0  LB    Angleton / Lake Jackson, TX, USA  1561 Km
2016-12-24  0646  341.0  ORB  Orr, MN, USA  790 Km
Joe Farley, Near Chicago
SDR-IQ / R8 / R7
Remote Resonant Loops for HF and LF / ALA 1530
Active 60" Whip / PA0RDT
QSLS appreciated to:    jfarley44@att.net

Offline jFarley

  • Global Moderator
  • DX Legend
  • *****
  • Posts: 5798
  • near Chicago
    • View Profile
    • Email
Re: Winter 2016 NDB Logs
« Reply #4 on: January 04, 2017, 1904 UTC »
Logs submitted for a recent Coordinated Listening Event whose purpose was to log a pair of beacons from as many radio countries as possible.


++++ Pairs ++++

2016-12-26  1226  299.0  TV   Turner Valley, AB, CAN  2246 Km
2016-12-26  1156  320.0  YQF  Red Deer, AB, CAN  2261 Km
2016-12-26  0446  350.0  NY   Enderby, BC, CAN  2557 Km
2016-12-26  0553  385.0  WL   Williams Lake, BC, CAN  2793 Km
2016-12-26  0233  212.0  YGX  Gillam, MB, CAN  1688 Km
2016-12-26  0221  305.0  YQ   Churchill/Eastern Creek, MB, CAN  1932 Km
2016-12-26  0343  326.0  FC   Fredericton, NB, CAN  1767 Km
2016-12-26  0151  212.0  SJ   Saint John, NB, CAN  1825 Km
2016-12-26  0319  356.0  AY   St Anthony, NL, CAN  2632 Km
2016-12-26  0235  350.0  DF   Deer Lake, NL, CAN  2498 Km
2016-12-26  0149  206.0  QI   Yarmouth, NS, CAN  1792 Km
2016-12-30  0147  263.0  QY   Sydney, NS, CAN  2283 Km
2016-12-26  0540  378.0  UX   Hall Beach, NU, CAN  3025 Km
2016-12-26  0236  329.0  YEK  Arviat, NU, CAN  2184 Km
2016-12-26  0231  266.0  YFH  Fort Hope, ON, CAN  1083 Km
2016-12-26  0224  317.0  ZZR  Severn, ON, CAN  878 Km
2016-12-26  0232  235.0  9H   La Grande 3, QC, CAN  1571 Km
2016-12-26  0232  244.0  DG   Chute Des Passes, QC, CAN  1569 Km
2016-12-26  0450  385.0  QV   Yorkton, SK, CAN  1525 Km
2016-12-26  0314  317.0  VC   La Ronge, SK, CAN  1944 Km

2016-12-26  0239  211.0  AN   Anniston, AL, USA  942 Km
2016-12-26  0154  224.0  BH   Birmingham, AL, USA  930 Km
2016-12-26  0225  311.0  GK   Fort Smith, AR, USA  919 Km
2016-12-26  0240  353.0  LI   Little Rock, AR, USA  880 Km
2016-12-27  0845  201.0  IP   Mobile, AZ, USA  2355 Km
2016-12-27  0941  206.0  SOW  Show Low, AZ, USA  2103 Km
2016-12-31  0417  344.0  FCH  Fressno, CA, USA  2791 Km
2016-12-28  0610  404.0  MOG  Montague, CA, USA  2845 Km
2016-12-26  0206  260.0  AP   Denver, CO, USA  1451 Km
2016-12-26  0425  400.0  FN   Fort Collins/Loveland, CO, USA  1433 Km
2016-12-26  0207  260.0  MTH  Marathon, FL, USA  2006 Km
2016-12-26  0205  257.0  SQT  Melbourne, FL, USA  1664 Km
2016-12-26  0223  309.0  EEX  Swainsboro, GA, USA  1128 Km
2016-12-26  0219  280.0  MQW  Mc. Rae, GA, USA  1173 Km
2016-12-26  0148  206.0  IIB  Independence, IA, USA  336 Km
2016-12-26  0204  257.0  PEA  Pella, IA, USA  418 Km
2016-12-29  0803  359.0  BO   Boise, ID, USA  2314 Km
2016-12-29  0742  383.0  PI   Pocatello, ID, USA  2017 Km
2016-12-26  0145  397.0  CIR  Cairo, IL, USA  541 Km
2016-12-26  0144  379.0  UG   Waukegan, IL, USA  74 Km
2016-12-26  0216  227.0  GW   De Kalb County, Auburn, IN, USA  257 Km
2016-12-26  0147  326.0  SIV  Sullivan, IN, USA  306 Km
2016-12-26  0224  314.0  CVY  Fort Riley, KS, USA  810 Km
2016-12-26  0248  341.0  OIN  Oberlin, KS, USA  1082 Km
2016-12-26  0211  273.0  FK   Fort Campbell, KY, USA  570 Km
2016-12-26  0251  400.0  XW   Mason, KY, USA  518 Km
2016-12-26  0302  414.0  MSD  Mansfield, LA, USA  1204 Km
2016-12-26  0304  407.0  OOC  Natchitoches, LA, USA  1220 Km
2016-12-29  0257  402.0  LW   Lawrence, MA, USA  1382 Km
2016-12-29  0331  389.0  PVC  Provincetown, MA, USA  1469 Km
2016-12-26  0254  349.0  APG  Aberdeen Proving Grounds, MD, USA  1032 Km
2016-12-26  0317  317.0  CBE  Cumberland, MD, USA  818 Km
2016-12-26  0152  212.0  JX   Jackson, MI, USA  302 Km
2016-12-26  0205  257.0  MB   Saginaw, MI, USA  358 Km
2016-12-26  0305  420.0  FQ   Fairmont, MN, USA  561 Km
2016-12-26  0202  253.0  GB   Marshall, MN, USA  708 Km
2016-12-26  0155  227.0  FZ   St. Louis, MO, USA  412 Km
2016-12-26  0150  208.0  CHQ  Charleston, MO, USA  567 Km
2016-12-26  0307  349.0  GW   Greenwood, MS, USA  935 Km
2016-12-26  0306  420.0  TU   Tupelo, MS, USA  854 Km
2016-12-27  0442  245.0  CRR  Circle, MT, USA  1522 Km
2016-12-26  0444  359.0  SDY  Sidney, MT, USA  1438 Km
2016-12-26  0429  361.0  HB   Burlington, NC, USA  972 Km
2016-12-26  0317  384.0  JB   Lumberton, NC, USA  1118 Km
2016-12-27  0802  230.0  BI   Bismarck, ND, USA  1143 Km
2016-12-28  0514  345.0  GF   Grand Forks, ND, USA  990 Km
2016-12-26  0247  257.0  JYR  York, NE, USA  813 Km
2016-12-26  0246  233.0  OKS  Oshkosh, NE, USA  1199 Km
2016-12-27  0626  254.0  CAT  Chatham, NJ, USA  1136 Km    New
2016-12-26  0322  363.0  RNB  Millville, NJ, USA  1116 Km
2016-12-26  0741  402.0  CV   Carlsbad, NM, USA  1800 Km
2016-12-27  1022  305.0  RO   Roswell, NM, USA  1729 Km
2016-12-30  0609  204.0  GB   Buffalo, NY, USA  763 Km
2016-12-26  0208  260.0  PYA  Penn Yan, NY, USA  905 Km
2016-12-26  0436  388.0  OFZ  Fort Sill, OK, USA  1200 Km
2016-12-26  0446  350.0  RG   Oklahoma City, OK, USA  1109 Km
2016-12-26  0156  230.0  BU   Columbus, OH, USA  460 Km
2016-12-26  0153  223.0  MW   Franklin, OH, USA  400 Km
2016-12-26  0438  372.0  CQD  Erie, PA, USA  650 Km
2016-12-27  0717  209.0  SYS  Somerset, PA, USA  788 Km
2016-12-26  0159  248.0  FRT  Spartanburg, SC, USA  933 Km
2016-12-26  0202  252.0  SMS  Sumter, SC, USA  1098 Km
2016-12-26  0232  245.0  FS   Sioux Falls, SD, USA  745 Km
2016-12-26  0430  347.0  YK   Yankton, SD, USA  775 Km
2016-12-26  0249  341.0  CQN  Chattanooga, TN, USA  784 Km
2016-12-26  0256  242.0  MMI  Athens, TN, USA  776 Km
2016-12-26  0200  248.0  PQF  Mesquite, TX, USA  1257 Km
2016-12-26  0226  320.0  TY   Tyler/Indoo, TX, USA  1242 Km
2016-12-26  0258  335.0  MK   Marion, VA, USA  796 Km
2016-12-26  0254  351.0  MSQ  Culpeper, VA, USA  938 Km
2016-12-26  0156  230.0  AT   Appleton, WI, USA  263 Km
2016-12-26  0148  206.0  RA   Racine, WI, USA  96 Km
2016-12-28  0337  388.0  PK   Parkersburg, WV, USA  620 Km
2016-12-26  0402  284.0  RQY  Elkins, WV, USA  760 Km
2016-12-26  0315  380.0  GC   Gillette, WY, USA  1453 Km
2016-12-26  0414  392.0  PNA  Pinedale, WY, USA  1795 Km

++++ Singles ++++

2016-12-28  0903  356.0  ZF   Yellowknife, NT, CAN  2877 Km
2016-12-26  0311  254.0  5B   Summerside, PE, CAN  1984 Km
2016-12-26  0615  369.0  ZDX  Coolidge Saint Johns, , ATG  3710 Km
2016-12-26  0222  309.0  GPI  Guapi, , CLM  4486 Km
2016-12-28  0043  415.0  CBC  West End, , CYM  2581 Km
2016-12-26  0315  385.0  TKL  Santa Elena Y Flores, , GTM  2782 Km
2016-12-26  0508  391.0  DDP  San Juan, PR, PTR  3308 Km
2016-12-26  0331  323.0  TAB  Crown Point, , TRD  4315 Km
Joe Farley, Near Chicago
SDR-IQ / R8 / R7
Remote Resonant Loops for HF and LF / ALA 1530
Active 60" Whip / PA0RDT
QSLS appreciated to:    jfarley44@att.net

Offline jFarley

  • Global Moderator
  • DX Legend
  • *****
  • Posts: 5798
  • near Chicago
    • View Profile
    • Email
Re: Winter 2016 NDB Logs
« Reply #5 on: January 13, 2017, 2012 UTC »
Recent logs from Downers Grove

2017-01-13  1045  204.0  YFY  Forbay - Iqaluit, NU, CAN  2741 Km
2017-01-13  0241  205.0  GM   Wilmington, NC, USA  1218 Km
2017-01-13  1040  214.0  YIO  Pond Inlet, NU, CAN  3477 Km
2017-01-13  0205  233.0  VHN  Van Horn, TX, USA  1919 Km     
2017-01-09  1111  242.0  GGE  Georgetown, SC, USA  1217 Km    New
2017-01-13  0621  245.0  UDG  Darlington, SC, USA  1085 Km
2017-01-09  1157  254.0  SM   Fort Smith, AB, CAN  2597 Km
2017-01-13  1045  256.0  YCY  Clyde River, NU, CAN  3373 Km
2017-01-13  1109  256.0  YXN  Whale Cove, NU, CAN  2292 Km
2017-01-11  0811  257.0  LW   Kelowna, BC, CAN  2576 Km
2017-01-13  0941  263.0  YBB  Kugaaruk, NU, CAN  2973 Km
2017-01-13  0257  269.0  GN   Gainesville, FL, USA  1447 Km
2017-01-09  1203  272.0  YLB  Lac La Biche, AB, CAN  2273 Km
2017-01-13  0631  275.0  BBN  Babylon, NY, USA  1227 Km     
2017-01-13  1153  277.0  YLC  Kimmirut, NU, CAN  2623 Km
2017-01-13  1228  290.0  YYH  Taloyoak, NU, CAN  3099 Km
2017-01-13  1228  298.0  3N   Weyburn, SK, CAN  1504 Km    New
2017-01-10  0605  315.0  OBL  UNID, , XUN  New
2017-01-10  0009  521.0  RPK  Middlesboro-Bell, KY, USA  688 Km
Joe Farley, Near Chicago
SDR-IQ / R8 / R7
Remote Resonant Loops for HF and LF / ALA 1530
Active 60" Whip / PA0RDT
QSLS appreciated to:    jfarley44@att.net

Offline jFarley

  • Global Moderator
  • DX Legend
  • *****
  • Posts: 5798
  • near Chicago
    • View Profile
    • Email
Re: Winter 2016 NDB Logs
« Reply #6 on: January 15, 2017, 1838 UTC »
Recent logs from Downers Grove, IL

Last nite's recording was just painful to look at as CW renderings were smeary and fady, so here's a couple from prior sessions.

2017-01-13  0947  211.0  HDG  Gooding, ID, USA  2194 Km    New
2017-01-13  0851  221.0  QU   Grande Prairie, AB, CAN  2682 Km
2017-01-13  1032  225.0  YIK  Ivujivik, QC, CAN  2383 Km
2017-01-13  1109  341.0  YCS  Chesterfield Inlet, NU, CAN  2403 Km
2017-01-13  1102  365.0  YGZ  Grise Fiord, NU, CAN  3860 Km
2017-01-14  1125  375.0  YZG  Salluit, QC, CAN  2408 Km
Joe Farley, Near Chicago
SDR-IQ / R8 / R7
Remote Resonant Loops for HF and LF / ALA 1530
Active 60" Whip / PA0RDT
QSLS appreciated to:    jfarley44@att.net

Offline jFarley

  • Global Moderator
  • DX Legend
  • *****
  • Posts: 5798
  • near Chicago
    • View Profile
    • Email
Re: Winter 2016 NDB Logs
« Reply #7 on: January 20, 2017, 2242 UTC »
Strong props from the south.

2017-01-19  0904  225.0  EPO    El Paso, , CLM  4338 Km    New
2017-01-18  0715  255.0  BS     Austin, TX, USA  1571 Km     
2017-01-19  1002  272.0  GLS    Galapagos, , GAL  4711 Km
2017-01-19  0533  272.0  RU     San Marcos, TX, USA  1595 Km     
2017-01-18  0807  278.0  URC    Nueva Gerona, , CUB  2280 Km   
2017-01-18  0822  329.0  FOF    Fort De France, , MRT  3986 Km
2017-01-18  0833  330.0  SJ     Patty, PR, PTR  3331 Km    New
2017-01-20  1157  335.0  DR     Del Rio, TX, USA  1808 Km
2017-01-18  0600  385.0  TKL    Santa Elena Y Flores, , GTM  2782 Km
2017-01-18  0921  415.0  SLS    Salinas (Guayas), , EQA  4951 Km    New  w/ CBC in a fade
Joe Farley, Near Chicago
SDR-IQ / R8 / R7
Remote Resonant Loops for HF and LF / ALA 1530
Active 60" Whip / PA0RDT
QSLS appreciated to:    jfarley44@att.net

Offline ChrisSmolinski

  • Administrator
  • Marconi Class DXer
  • *****
  • Posts: 23665
  • Westminster, MD USA
    • View Profile
    • Black Cat Systems
Re: Winter 2016 NDB Logs
« Reply #8 on: January 21, 2017, 0033 UTC »
Interesting you had good propagation from the south, I had two decodes supposedly from a DGPS station in Argentina. They were too few and too far part in time to "count", but I don't recall seeing that station before, and it is on a split 0.5 kHz channel not used here in NAm.
Chris Smolinski
Westminster, MD
eQSLs appreciated! csmolinski@blackcatsystems.com
NRD 545 / netSDR / AFE822x / AirSpy HF+ / KiwiSDR / 670 ft horizontal loop / 500 ft northeast beverage / 58 ft T2FD / 300 ft south beverage / 43m / 20m / 10m  dipoles / Crossed Parallel Loop

Offline jFarley

  • Global Moderator
  • DX Legend
  • *****
  • Posts: 5798
  • near Chicago
    • View Profile
    • Email
Re: Winter 2016 NDB Logs
« Reply #9 on: February 04, 2017, 1651 UTC »
Recent logs from Downers Grove, Illinois

2017-02-01  0943  221.0  OR    Orlando, FL, USA  1594 Km    New
2017-02-03  0841  260.0  TOY  Tongoy, , CHL  8203 Km   New  I believe that this is my most distant NDB to date
2017-02-01  0513  263.0  JN     Smithfield, NC, USA    New
2017-02-02  0530  268.0  UBY  Bayamo (Granma), , CUB  2614 Km
2017-02-03  0351  341.0  HRX  Hereford, TX, USA  1469 Km
2017-02-02  0255  379.0  RUE  Russellville, AR, USA  just re-activated
2017-02-04  0301  417.0  HQT  Coats, NC, USA  1074 Km

Joe Farley, Near Chicago
SDR-IQ / R8 / R7
Remote Resonant Loops for HF and LF / ALA 1530
Active 60" Whip / PA0RDT
QSLS appreciated to:    jfarley44@att.net

Offline flexoman61

  • DX Legend
  • ******
  • Posts: 1977
  • Connecticut, USA
    • View Profile
    • Email
Re: Winter 2016 NDB Logs
« Reply #10 on: February 05, 2017, 0030 UTC »
Tongoy, , CHL  Very nice!
Please QSL to: flexoman61@gmail.com
Connecticut
Icom R75/Kenwood R-2000
200' longwire/43m band folded dipole/VHF ground plane

Offline jFarley

  • Global Moderator
  • DX Legend
  • *****
  • Posts: 5798
  • near Chicago
    • View Profile
    • Email
Re: Winter 2016 NDB Logs
« Reply #11 on: February 11, 2017, 0039 UTC »
Recent logs from Downers Grove, Illinois

2017-02-03  0714  251.0  DB   Dublin, GA, USA  1128 Km     
2017-02-10  0715  329.0  SMY  Marianna, FL, USA  1246 Km
2017-02-06  0851  368.0  ZVR  Sea Island (Vancouver), BC, CAN    New
2017-02-04  0846  375.0  SH    Staunton/Waynesboro/Harrisonburg, VA, USA  868 Km    New
2017-02-06  0847  378.0  AP    Active Pass (Mayne Island), BC, CAN  2845 Km     
Joe Farley, Near Chicago
SDR-IQ / R8 / R7
Remote Resonant Loops for HF and LF / ALA 1530
Active 60" Whip / PA0RDT
QSLS appreciated to:    jfarley44@att.net

Offline jFarley

  • Global Moderator
  • DX Legend
  • *****
  • Posts: 5798
  • near Chicago
    • View Profile
    • Email
Re: Winter 2016 NDB Logs
« Reply #12 on: February 18, 2017, 2142 UTC »
Recent logs from Downers Grove, Illinois

Winding down the season as spring comes early in Chicago...

2017-02-14  0302  204.0  MD        Harrisburg, PA, USA  948 Km
2017-02-17  0407  279.0  OZ        Oneonta, NY, USA  1075 Km     
2017-02-16  1141  279.0  SI         Simiutaq (Kitaa), , GRL  3474 Km    New
2017-02-11  0840  320.0  9VAK5  Petrorig-III, , XON   Drill ship in the Gulf of Mexico
2017-02-17  0345  366.0  IS         Islip, NY, USA  1240 Km
2017-02-11  0715  368.0  SA        Savannah, GA, USA  1230 Km     
2017-02-15  1114  375.0  CP        Casper, WY, USA  1530 Km     
2017-02-15  1233  378.0  OT        North Bend, OR, USA  2958 Km     
2017-02-15  0111  380.0  GR        Grand Island, NE, USA  869 Km
Joe Farley, Near Chicago
SDR-IQ / R8 / R7
Remote Resonant Loops for HF and LF / ALA 1530
Active 60" Whip / PA0RDT
QSLS appreciated to:    jfarley44@att.net

Offline jFarley

  • Global Moderator
  • DX Legend
  • *****
  • Posts: 5798
  • near Chicago
    • View Profile
    • Email
Re: Winter 2016 NDB Logs
« Reply #13 on: March 18, 2017, 2207 UTC »
Yet a few more logs from Downers Grove, Illinois,

Very good conditions to the West this AM

2017-03-05  0815  212.0  OZ    Fort Rucker (Ozark), AL, USA  1191 Km
2017-03-05  1245  220.0  HLE   Hailey, ID, USA  2145 Km
2017-03-18  0923  256.0  EB    Namao' Edmonton, AB, CAN  2300 Km     
2017-03-18  0933  276.0  ZTH  Headframe' Thompson, MB, CAN  1715 Km
2017-03-18  1102  284.0  FHR  Friday Harbor, WA, USA  2823 Km    New
2017-03-18  1124  305.0  ONO  Ontario, OR, USA  2367 Km     
2017-03-13  0241  334.0  RM     Rockland, ME, USA  1554 Km    New 
2017-03-15  0835  353.0  LLD    Lanai, HI, HWA  6775 Km
 
Joe Farley, Near Chicago
SDR-IQ / R8 / R7
Remote Resonant Loops for HF and LF / ALA 1530
Active 60" Whip / PA0RDT
QSLS appreciated to:    jfarley44@att.net

Offline pinto vortando

  • Sr. Member
  • ****
  • Posts: 462
    • View Profile
Re: Winter 2016 NDB Logs
« Reply #14 on: March 19, 2017, 0840 UTC »
Hawaii,  nice one.   ;)
Das Radiobunker somewhere in Michigan